YAOGAN 16C

导读

YAOGAN 16C(遥感十六号C星)是中国于2012年11月25日发射的遥感卫星,隶属于中国“遥感”系列遥感星座,运行于低地近地轨道。作为中国遥感卫星体系的组成部分,它搭载遥感观测设备,可获取地球表面观测数据,服务于国土资源勘查、环境监测保护、农作物估产、防灾减灾、城市规划与空间科学试验等领域,为国家经济社会发展提供地理信息支撑,目前仍保持在轨运行状态。

基本信息
目录编号:
39013
目录名称:
YAOGAN 16C
国际标识:
2012-066C
轨道中心:
EARTH
卫星名称:
YAOGAN 16C
卫星全名:
--
卫星状态:
在轨 (已飞行4947 天)
发射日期:
2012-11-25 UTC
国别 :
中国 (CN)
星等 :
--
轨道信息
数据来源 国际轨道数据 AOE轨道数据
星历时间 2026-06-12T14:41:56+0800
13小时前
查看轨道信息
2026-06-12T07:00:00+0800
20小时前
查看轨道信息
半长轴 7466.979km 7466.977km
偏心率 0.0435337 0.0435495
轨道倾角 63.355° 63.357°
近地点辐角 26.409° 26.481°
升交点赤经 302.196° 303.022°
平近点角 335.842° 221.917°
近地点 763.776km 763.656km
远地点 1413.908km 1414.024km
周期 107.023分钟 107.023分钟
每日圈数 13.455052 13.455058
详细信息
使用方式:
暂无
2D轨道图
3D轨道图
轨道高度分析图
轨道倾角分析图
轨道综合分析图
查看轨道综合分析图